BEIDOU 17

Last updated on Nov. 17, 2019, 4:19 a.m. UTC

1 40549U 15019A   19320.34851561 -.00000167  00000-0  00000+0 0  9990
2 40549  53.3611 323.6661 0036791 194.0448 119.8233  1.00278413 16961
UTC
Height (km)
Latitude
Longitude
Inclination
Orbital Period
UTC large
Height (km)
Speed (km/s)
/
Latitude / Longitude
Inclination (degrees)
Orbital Period (minutes)
Azimuth
Elevation
Range (km)
Doppler Factor
iOS Compass Heading
iOS Angle

Next 30 passes for location: Hong Kong

Rise time Rise Azimuth (degrees) Set time Set Azimuth (degrees) Duration Max altitude (degrees)

No matching passes for this satellites